[[{"header":{"parameterUnit":"m.s-1","parameterCategory":2,"la1":30.2992,"la2":30.254,"lo1":-89.0895,"lo2":-89.0443,"dy":0.0025,"dx":0.0025,"nx":19,"ny":19,"refTime":"2026-03-21T03:00:00:Z","depth":"0","parameterNumber":2,"parameterNumberName":"U-component_of_CURRENTS"},"data":[0,0,0,0.1546,0.1548,0.1606,0.1606,0.162,0.162,0,0,0,0,0,0,0,0,0,0,0,0.1524,0.1524,0.1546,0.1548,0.1606,0.1606,0.162,0.162,0,0,0,0,0,0,0,0,0,0,0,0.1523,0.1524,0.1525,0.1548,0.1606,0.1606,0.162,0.1588,0,0,0,0,0,0,0,0,0,0,0.1539,0.1527,0.1524,0.1525,0.1549,0.1606,0.1606,0.1587,0.159,0.1579,0,0.1598,0,0.1614,0.162,0.162,0,0,0,0.1538,0.1525,0.1546,0.1525,0.1549,0.1606,0.1577,0.159,0.1593,0.1583,0.1598,0.1599,0.1614,0.162,0.162,0.1666,0.1666,0,0,0.1534,0.1525,0.1544,0.1549,0.1576,0.1575,0.1579,0.1592,0.1595,0.1598,0.16,0.1615,0.162,0.162,0.1665,0.1666,0,0,0,0.1532,0.1523,0.1545,0.1548,0.1566,0.1577,0.1581,0.1594,0.1604,0.16,0.1615,0.162,0.162,0.1665,0.1665,0.1633,0,0,0,0.153,0.1523,0.1544,0.1537,0.1566,0.1589,0.1583,0.1603,0.1605,0.1615,0.162,0.1621,0.1664,0.1665,0.1633,0.1633,0,0,0,0.1519,0.1521,0.1533,0.1537,0.1568,0.159,0.1599,0.1604,0.1614,0.162,0.1621,0.1664,0.1665,0.1633,0.1633,0.1645,0,0,0,0.15,0.1491,0.1533,0.1533,0.1568,0.1585,0.16,0.1625,0.1634,0.162,0.1664,0.1665,0.1633,0.1633,0.1644,0.1632,0.1632,0,0,0.1467,0.1487,0.1486,0.1525,0.1536,0.1576,0.1586,0.1618,0.1645,0.1652,0.1654,0.1633,0.1633,0.1645,0.1692,0.1691,0,0,0,0.1462,0.1455,0.1472,0.1492,0.153,0.1562,0.1595,0.1622,0.1659,0.1658,0.1664,0.1666,0.1673,0.1666,0.1665,0.1608,0.167,0.167,0.167,0.1379,0.141,0.141,0.1451,0.1476,0.1551,0.1587,0.1631,0.1646,0.1678,0.1661,0.168,0.1673,0.1672,0.1614,0.1679,0.1679,0.1679,0.1679,0.1324,0.1324,0.1368,0.1376,0.1437,0.1455,0.1554,0.1598,0.1661,0.167,0.1678,0.166,0.1669,0.1607,0.1677,0.1678,0.1678,0.1678,0.1678,0.1285,0.1284,0.1297,0.1316,0.1349,0.1424,0.1481,0.1565,0.1636,0.1661,0.167,0.167,0.1597,0.1663,0.1663,0.1663,0.1663,0.1663,0.1663,0.1236,0.1246,0.1237,0.1267,0.1281,0.1338,0.1452,0.1512,0.1606,0.1657,0.1657,0.1605,0.1676,0.1656,0.1664,0.1664,0.1664,0.1664,0.1664,0.1149,0.1184,0.1166,0.1173,0.1213,0.1225,0.1353,0.1464,0.1547,0.159,0.1585,0.1659,0.1674,0.1675,0.1656,0.1664,0.1664,0.1664,0.1664,0.1094,0.1111,0.1085,0.1087,0.1115,0.117,0.1179,0.1288,0.1445,0.1495,0.1552,0.1531,0.1534,0.1539,0.1543,0.1522,0.1496,0.1496,0.1495,0.1017,0.1039,0.0993,0.1028,0.1056,0.108,0.1037,0.1058,0.1307,0.1482,0.1474,0.1481,0.1444,0.1452,0.1458,0.1468,0.1433,0,0]},{"header":{"parameterUnit":"m.s-1","parameterCategory":2,"la1":30.2992,"la2":30.254,"lo1":-89.0895,"lo2":-89.0443,"dy":0.0025,"dx":0.0025,"nx":19,"ny":19,"refTime":"2026-03-21T03:00:00:Z","depth":"0","parameterNumber":3,"parameterNumberName":"V-component_of_CURRENTS"},"data":[0,0,0,-0.0164,-0.0163,-0.0114,-0.0114,-0.0115,-0.0115,0,0,0,0,0,0,0,0,0,0,0,-0.0187,-0.0187,-0.0164,-0.0163,-0.0114,-0.0114,-0.0115,-0.0115,0,0,0,0,0,0,0,0,0,0,0,-0.0187,-0.0187,-0.0187,-0.0163,-0.0114,-0.0114,-0.0115,-0.0134,0,0,0,0,0,0,0,0,0,0,-0.0173,-0.0181,-0.0187,-0.0187,-0.0163,-0.0114,-0.0114,-0.0134,-0.0133,-0.0158,0,-0.0159,0,-0.014,-0.0117,-0.0117,0,0,0,-0.0155,-0.0182,-0.0177,-0.0187,-0.0163,-0.0115,-0.0134,-0.0133,-0.0131,-0.0157,-0.0158,-0.0158,-0.014,-0.0118,-0.0118,-0.0107,-0.0107,0,0,-0.0157,-0.0169,-0.0177,-0.0176,-0.0163,-0.0136,-0.0133,-0.0131,-0.0133,-0.0158,-0.0157,-0.014,-0.0118,-0.0118,-0.0107,-0.0107,0,0,0,-0.0171,-0.0171,-0.0164,-0.0177,-0.0165,-0.0134,-0.0131,-0.0132,-0.0132,-0.0157,-0.014,-0.0118,-0.0118,-0.0108,-0.0107,-0.0038,0,0,0,-0.0172,-0.018,-0.0165,-0.017,-0.0164,-0.0137,-0.0132,-0.0132,-0.0131,-0.014,-0.0118,-0.0119,-0.0108,-0.0108,-0.0041,-0.0006,0,0,0,-0.0187,-0.0181,-0.018,-0.0172,-0.0154,-0.0137,-0.0135,-0.0131,-0.0122,-0.0117,-0.0119,-0.0109,-0.0108,-0.0043,-0.0011,0.0022,0,0,0,-0.0192,-0.0182,-0.0181,-0.016,-0.0155,-0.0115,-0.0135,-0.0107,-0.01,-0.0118,-0.0108,-0.0107,-0.0044,-0.0013,0.0019,0.0072,0.009,0,0,-0.0179,-0.0181,-0.0165,-0.0163,-0.0121,-0.012,-0.0064,-0.0068,-0.0096,-0.0113,-0.0112,-0.004,-0.0011,0.0021,0.0124,0.0139,0,0,0,-0.0159,-0.0148,-0.0135,-0.0111,-0.0091,-0.005,-0.0047,-0.004,-0.0033,-0.009,-0.0041,-0.0025,-0.0007,0.0019,0.0032,0.004,-0.0103,-0.0103,-0.0103,-0.0162,-0.0136,-0.0098,-0.0064,-0.004,0.0,0.0036,0.0042,0.0003,0.0019,0.003,0.0101,0.0131,0.014,0.0148,0.0026,0.0026,0.0026,0.0027,-0.012,-0.0091,-0.0059,-0.001,0.0021,0.0062,0.0108,0.0109,0.0147,0.0099,0.0113,0.009,0.0158,0.0161,0.0031,0.003,0.003,0.0029,0.0029,-0.0124,-0.0098,-0.0062,0.0018,0.0071,0.0111,0.0191,0.0211,0.0201,0.0232,0.0235,0.0234,0.0237,0.0229,0.0229,0.0229,0.0229,0.023,0.023,-0.0131,-0.0086,-0.0027,0.0049,0.0098,0.0169,0.0242,0.0286,0.0326,0.032,0.032,0.0272,0.0163,0.0155,0.0235,0.0234,0.0233,0.0233,0.0232,-0.0089,-0.0079,0.0017,0.0074,0.0198,0.0301,0.0339,0.0437,0.0459,0.0489,0.0436,0.0363,0.0345,0.0334,0.033,0.0451,0.0451,0.0451,0.0451,-0.0067,-0.0056,0.0082,0.0182,0.0294,0.0372,0.0522,0.0587,0.0589,0.0582,0.053,0.0499,0.049,0.0476,0.0462,0.0459,0.061,0.061,0.061,-0.0005,0.002,0.0124,0.0214,0.0345,0.0466,0.0619,0.072,0.0694,0.0614,0.0534,0.0527,0.0475,0.046,0.0427,0.0407,0.0396,0,0]}],[{"header":{"parameterUnit":"m.s-1","parameterCategory":2,"la1":30.2992,"la2":30.254,"lo1":-89.0895,"lo2":-89.0443,"dy":0.0025,"dx":0.0025,"nx":19,"ny":19,"refTime":"2026-03-21T03:00:00:Z","depth":"2","parameterNumber":2,"parameterNumberName":"U-component_of_CURRENTS"},"data":[0,0,0,-0.0357,-0.0355,-0.0235,-0.0234,0.0131,0.0135,0,0,0,0,0,0,0,0,0,0,0,-0.0366,-0.0365,-0.0358,-0.0354,-0.0235,-0.0234,0.013,0.0135,0,0,0,0,0,0,0,0,0,0,0,-0.0367,-0.0365,-0.0363,-0.0354,-0.0235,-0.0234,0.0129,-0.0014,0,0,0,0,0,0,0,0,0,0,-0.0157,-0.0221,-0.0366,-0.0363,-0.0353,-0.0235,-0.0234,-0.0024,-0.0005,0.0138,0,0.0185,0,0.0165,0.0164,0.0166,0,0,0,-0.0357,-0.0237,-0.018,-0.0362,-0.0352,-0.0235,-0.029,-0.0015,0.0006,0.0164,0.019,0.0201,0.0171,0.0167,0.0169,0.0513,0.0513,0,0,-0.0364,-0.0367,-0.0195,-0.0166,-0.0276,-0.0293,-0.0286,-0.0005,0.0028,0.0191,0.0208,0.0177,0.017,0.0174,0.0512,0.0513,0,0,0,-0.0381,-0.0371,-0.0327,-0.0179,-0.0176,-0.029,-0.0281,0.0015,0.0038,0.0211,0.0181,0.0173,0.0178,0.0512,0.0512,0.0654,0,0,0,-0.0385,-0.0381,-0.0329,-0.0334,-0.0182,-0.0116,-0.0267,0.0019,0.0048,0.0179,0.0173,0.0182,0.0511,0.0512,0.0649,0.0612,0,0,0,-0.038,-0.0383,-0.0351,-0.0333,-0.0283,-0.0122,-0.0086,0.0023,0.0032,0.0166,0.0184,0.0511,0.0512,0.0645,0.0607,0.067,0,0,0,-0.0414,-0.0292,-0.035,-0.0243,-0.0283,-0.0111,-0.0089,0.0106,0.0242,0.0175,0.0511,0.0512,0.0644,0.0604,0.0667,0.0583,0.0592,0,0,-0.0273,-0.0276,-0.022,-0.0268,-0.0116,-0.0131,0.0033,0.0243,0.0284,0.0433,0.044,0.0651,0.0607,0.067,0.0645,0.0652,0,0,0,-0.0186,-0.0109,-0.0072,-0.0024,0.0039,0.0131,0.0259,0.0324,0.0498,0.0362,0.0633,0.0597,0.0635,0.0577,0.0583,0.0517,0.0517,0.0517,0.0517,0.0107,0.0055,0.0157,0.016,0.0251,0.0355,0.0439,0.0534,0.0608,0.0699,0.0706,0.082,0.0762,0.0765,0.0745,0.0746,0.0747,0.0747,0.0747,0.0295,0.0298,0.0279,0.0362,0.0402,0.0546,0.0656,0.0716,0.0801,0.0805,0.084,0.0715,0.0779,0.0758,0.0756,0.0755,0.0754,0.0753,0.0752,0.0402,0.0378,0.0413,0.0435,0.0583,0.0663,0.0774,0.0851,0.0893,0.0925,0.0875,0.0871,0.0876,0.0997,0.0997,0.0997,0.0998,0.0998,0.0998,0.0423,0.0448,0.0495,0.0543,0.0594,0.0712,0.0866,0.0918,0.0966,0.0935,0.0935,0.0901,0.0893,0.0887,0.1,0.1,0.1,0.0999,0.0999,0.0462,0.0497,0.0521,0.0559,0.0639,0.0688,0.0836,0.0919,0.0973,0.0956,0.0946,0.0946,0.087,0.0862,0.0852,0.095,0.095,0.095,0.095,0.0502,0.0512,0.0568,0.0594,0.062,0.0687,0.0702,0.0655,0.0684,0.0601,0.0615,0.0548,0.056,0.0459,0.0461,0.044,0.043,0.0428,0.0427,0.0526,0.0532,0.0579,0.0605,0.0619,0.0647,0.061,0.0509,0.039,0.0397,0.0428,0.0934,0.0874,0.0877,0.0749,0.0742,0.0718,0,0]},{"header":{"parameterUnit":"m.s-1","parameterCategory":2,"la1":30.2992,"la2":30.254,"lo1":-89.0895,"lo2":-89.0443,"dy":0.0025,"dx":0.0025,"nx":19,"ny":19,"refTime":"2026-03-21T03:00:00:Z","depth":"2","parameterNumber":3,"parameterNumberName":"V-component_of_CURRENTS"},"data":[0,0,0,0.0015,0.0014,-0.0052,-0.0052,-0.0204,-0.0205,0,0,0,0,0,0,0,0,0,0,0,0.0007,0.0007,0.0015,0.0014,-0.0052,-0.0052,-0.0204,-0.0205,0,0,0,0,0,0,0,0,0,0,0,0.0008,0.0007,0.0006,0.0014,-0.0052,-0.0052,-0.0204,-0.0143,0,0,0,0,0,0,0,0,0,0,-0.0074,-0.0036,0.0007,0.0006,0.0014,-0.0051,-0.0052,-0.014,-0.0147,-0.0185,0,-0.0201,0,-0.0183,-0.0214,-0.0215,0,0,0,-0.0012,-0.003,-0.0063,0.0006,0.0014,-0.0051,-0.003,-0.0144,-0.0152,-0.0195,-0.0203,-0.0207,-0.0186,-0.0215,-0.0216,-0.0278,-0.0278,0,0,-0.0009,0.0009,-0.0058,-0.0069,-0.0012,-0.0027,-0.0031,-0.0148,-0.0153,-0.0203,-0.021,-0.0188,-0.0216,-0.0217,-0.0279,-0.0278,0,0,0,0.002,0.0011,-0.0018,-0.0064,-0.0057,-0.0028,-0.0033,-0.0148,-0.0163,-0.0211,-0.019,-0.0217,-0.0219,-0.0279,-0.0279,-0.0184,0,0,0,0.0021,0.003,-0.0017,-0.0005,-0.0055,-0.0085,-0.003,-0.0156,-0.0167,-0.0189,-0.0217,-0.022,-0.028,-0.0279,-0.0188,-0.0156,0,0,0,0.0012,0.0031,0.0016,-0.0004,-0.0019,-0.0083,-0.0104,-0.0158,-0.0153,-0.0215,-0.0221,-0.028,-0.0279,-0.0191,-0.0161,-0.0141,0,0,0,0.004,0.0024,0.0016,0.0019,-0.0018,-0.0032,-0.0103,-0.0122,-0.0166,-0.0218,-0.028,-0.0279,-0.0192,-0.0164,-0.0144,-0.0109,-0.0093,0,0,0.0037,0.0025,0.003,0.0022,0.0015,-0.0024,-0.0015,-0.0103,-0.017,-0.0252,-0.0253,-0.0187,-0.0161,-0.0142,-0.0061,-0.0046,0,0,0,0.0043,0.0028,0.0028,0.0027,0.0021,0.0007,-0.0047,-0.0068,-0.0134,-0.0187,-0.0196,-0.0184,-0.0174,-0.016,-0.0148,-0.0275,-0.0275,-0.0275,-0.0275,-0.002,0.0009,0.0019,0.0031,0.0031,0.0032,0.0023,-0.0023,-0.0085,-0.009,-0.0113,-0.0044,-0.0026,-0.0017,-0.0117,-0.0117,-0.0116,-0.0116,-0.0116,-0.0031,-0.0008,0.0018,0.0038,0.0047,0.0051,0.0055,0.0039,0.0026,-0.0033,-0.0028,-0.0068,0.0002,-0.0108,-0.011,-0.0111,-0.0112,-0.0112,-0.0113,-0.0065,-0.0035,-0.0017,0.0044,0.0056,0.007,0.0123,0.012,0.0082,0.0106,0.008,0.0078,0.0004,0.0098,0.0099,0.0099,0.0099,0.0099,0.01,-0.0077,-0.0046,-0.0011,0.0043,0.0071,0.0117,0.0163,0.0186,0.0194,0.0174,0.0174,0.0027,0.002,0.0015,0.0104,0.0103,0.0102,0.0102,0.0102,-0.006,-0.0052,0.0019,0.0053,0.0146,0.0228,0.0251,0.0311,0.0314,0.0319,0.0205,0.0202,0.0165,0.0155,0.0152,0.027,0.027,0.027,0.027,-0.0058,-0.0047,0.0057,0.0134,0.0233,0.0286,0.0384,0.0318,0.0257,0.0159,0.0163,0.0122,0.0119,0.0075,0.0067,0.0059,0.0153,0.0152,0.0152,-0.0032,-0.0002,0.0072,0.0159,0.0275,0.037,0.0438,0.0355,0.0171,0.0137,0.004,0.0282,0.0232,0.0224,0.0161,0.0145,0.0134,0,0]}],[{"header":{"parameterUnit":"m.s-1","parameterCategory":2,"la1":30.2992,"la2":30.254,"lo1":-89.0895,"lo2":-89.0443,"dy":0.0025,"dx":0.0025,"nx":19,"ny":19,"refTime":"2026-03-21T03:00:00:Z","depth":"4","parameterNumber":2,"parameterNumberName":"U-component_of_CURRENTS"},"data":[0,0,0,-0.0677,-0.0679,-0.0746,-0.0746,-0.0831,-0.0832,0,0,0,0,0,0,0,0,0,0,0,-0.0659,-0.0659,-0.0677,-0.0679,-0.0745,-0.0746,-0.0831,-0.0832,0,0,0,0,0,0,0,0,0,0,0,-0.0658,-0.0659,-0.066,-0.0679,-0.0745,-0.0746,-0.0831,-0.0779,0,0,0,0,0,0,0,0,0,0,-0.0714,-0.0693,-0.0659,-0.066,-0.068,-0.0745,-0.0746,-0.0777,-0.0782,-0.0803,0,-0.0825,0,-0.0833,-0.0839,-0.0839,0,0,0,-0.0673,-0.0688,-0.0713,-0.066,-0.0681,-0.0745,-0.0714,-0.078,-0.0786,-0.0811,-0.0826,-0.0829,-0.0834,-0.0839,-0.084,-0.0989,-0.099,0,0,-0.0669,-0.0662,-0.0709,-0.0718,-0.0713,-0.0712,-0.0716,-0.0784,-0.0793,-0.0826,-0.0831,-0.0835,-0.084,-0.0841,-0.0988,-0.0989,0,0,0,-0.0663,-0.0659,-0.0683,-0.0714,-0.0728,-0.0714,-0.0719,-0.0789,-0.08,-0.0832,-0.0836,-0.084,-0.0841,-0.0987,-0.0988,-0.1027,0,0,0,-0.066,-0.0656,-0.0681,-0.0676,-0.0727,-0.0758,-0.0723,-0.0795,-0.0803,-0.0836,-0.084,-0.0842,-0.0986,-0.0988,-0.1024,-0.1038,0,0,0,-0.0653,-0.0655,-0.0669,-0.0676,-0.0708,-0.0757,-0.0771,-0.0797,-0.0806,-0.0839,-0.0843,-0.0985,-0.0987,-0.1021,-0.1034,-0.101,0,0,0,-0.0634,-0.0645,-0.0669,-0.0683,-0.0707,-0.0738,-0.077,-0.0808,-0.0836,-0.0841,-0.0986,-0.0988,-0.102,-0.1031,-0.1008,-0.0732,0,0,0,-0.0631,-0.0645,-0.0651,-0.0674,-0.0699,-0.0728,-0.0764,-0.0825,-0.0881,-0.096,-0.0964,-0.1025,-0.1033,-0.101,-0.0865,0,0,0,0,-0.0638,-0.0649,-0.066,-0.0685,-0.0712,-0.0751,-0.0799,-0.0847,-0.0969,-0.0911,-0.1059,-0.1064,-0.1046,-0.0883,-0.0999,-0.0999,-0.0999,-0.0998,-0.0998,-0.062,-0.0638,-0.0652,-0.0683,-0.0713,-0.0778,-0.0824,-0.0912,-0.0971,-0.1055,-0.1121,-0.1167,-0.1001,-0.1151,-0.1152,-0.1152,-0.1152,-0.1152,-0.1152,-0.0607,-0.0612,-0.0651,-0.0681,-0.0732,-0.0793,-0.0896,-0.0967,-0.1107,-0.1164,-0.1145,-0.0969,-0.1157,-0.1156,-0.1155,-0.1155,-0.1155,-0.1154,-0.1154,-0.0577,-0.0585,-0.0616,-0.0668,-0.0754,-0.085,-0.0919,-0.1074,-0.1152,-0.1192,-0.1024,-0.1182,-0.1146,-0.1218,-0.1218,-0.1218,-0.1218,-0.1218,-0.1218,-0.0538,-0.0563,-0.0589,-0.0669,-0.0725,-0.0834,-0.0992,-0.0982,-0.1091,-0.1042,-0.1242,-0.1188,-0.1185,-0.115,-0.1217,-0.1217,-0.1217,-0.1217,-0.1217,-0.0497,-0.052,-0.0551,-0.0589,-0.0669,-0.0723,-0.0871,-0.0807,-0.0791,-0.0708,-0.0913,-0.0928,-0.0874,-0.0879,-0.083,-0.0806,-0.0802,-0.0799,0,-0.0463,-0.0478,-0.0499,-0.0511,-0.0517,-0.0628,-0.0522,-0.0511,-0.0594,-0.0635,-0.0773,-0.1013,-0.102,-0.0966,-0.0965,-0.0909,0,0,0,-0.0429,-0.0451,-0.0435,-0.0447,-0.0442,-0.0408,-0.0485,-0.0448,-0.0644,-0.0427,-0.0714,-0.0737,-0.0835,-0.1217,-0.1171,-0.1168,-0.1107,0,0]},{"header":{"parameterUnit":"m.s-1","parameterCategory":2,"la1":30.2992,"la2":30.254,"lo1":-89.0895,"lo2":-89.0443,"dy":0.0025,"dx":0.0025,"nx":19,"ny":19,"refTime":"2026-03-21T03:00:00:Z","depth":"4","parameterNumber":3,"parameterNumberName":"V-component_of_CURRENTS"},"data":[0,0,0,-0.0034,-0.0035,-0.0104,-0.0105,-0.018,-0.0181,0,0,0,0,0,0,0,0,0,0,0,-0.0013,-0.0013,-0.0033,-0.0035,-0.0104,-0.0105,-0.018,-0.0181,0,0,0,0,0,0,0,0,0,0,0,-0.0013,-0.0013,-0.0014,-0.0035,-0.0104,-0.0105,-0.018,-0.0133,0,0,0,0,0,0,0,0,0,0,-0.0068,-0.0044,-0.0013,-0.0014,-0.0035,-0.0104,-0.0105,-0.0131,-0.0136,-0.0142,0,-0.0151,0,-0.0162,-0.0184,-0.0185,0,0,0,-0.0044,-0.004,-0.006,-0.0014,-0.0036,-0.0104,-0.0075,-0.0134,-0.0139,-0.0148,-0.0152,-0.0155,-0.0163,-0.0185,-0.0185,-0.0251,-0.0251,0,0,-0.004,-0.0026,-0.0056,-0.0063,-0.0052,-0.0073,-0.0077,-0.0137,-0.0141,-0.0153,-0.0157,-0.0165,-0.0185,-0.0186,-0.0251,-0.0251,0,0,0,-0.0023,-0.0023,-0.0042,-0.006,-0.0071,-0.0075,-0.008,-0.0139,-0.0145,-0.0158,-0.0165,-0.0186,-0.0186,-0.0251,-0.0251,-0.0254,0,0,0,-0.0021,-0.0013,-0.004,-0.0032,-0.007,-0.0106,-0.008,-0.0141,-0.0148,-0.0165,-0.0186,-0.0187,-0.025,-0.0251,-0.0253,-0.0259,0,0,0,-0.001,-0.0011,-0.0019,-0.0031,-0.0057,-0.0106,-0.0116,-0.0144,-0.0152,-0.0185,-0.0187,-0.025,-0.0251,-0.0252,-0.0257,-0.025,0,0,0,0.0006,-0.0018,-0.0019,-0.0057,-0.0057,-0.0122,-0.0116,-0.0168,-0.0199,-0.0186,-0.025,-0.0251,-0.0252,-0.0257,-0.025,-0.0238,0,0,0,-0.0018,-0.002,-0.0047,-0.005,-0.0114,-0.0113,-0.0184,-0.0217,-0.0208,-0.023,-0.0232,-0.0253,-0.0257,-0.025,-0.0279,0,0,0,0,-0.0052,-0.0064,-0.0087,-0.0123,-0.0166,-0.021,-0.0236,-0.0241,-0.0254,-0.0227,-0.0266,-0.0269,-0.0264,-0.0257,-0.0254,-0.0254,-0.0254,-0.0254,-0.0254,-0.0051,-0.0088,-0.0137,-0.0184,-0.0226,-0.028,-0.0311,-0.0319,-0.0294,-0.0294,-0.0281,-0.0292,-0.0286,-0.029,-0.029,-0.029,-0.029,-0.029,-0.029,-0.0087,-0.0125,-0.0169,-0.0226,-0.028,-0.0333,-0.0374,-0.0362,-0.0338,-0.0312,-0.0306,-0.0273,-0.029,-0.029,-0.029,-0.029,-0.029,-0.029,-0.029,-0.0089,-0.0116,-0.0149,-0.0237,-0.0306,-0.0362,-0.04,-0.0385,-0.0347,-0.0334,-0.029,-0.0294,-0.0282,-0.0299,-0.0299,-0.0299,-0.0299,-0.0299,-0.0299,-0.0084,-0.0121,-0.0174,-0.0251,-0.031,-0.036,-0.0392,-0.039,-0.0352,-0.0299,-0.0307,-0.0295,-0.0295,-0.0283,-0.0299,-0.0299,-0.0299,-0.0299,-0.0299,-0.0114,-0.012,-0.0195,-0.0252,-0.0368,-0.0384,-0.0412,-0.0383,-0.0358,-0.0327,-0.029,-0.029,-0.0286,-0.0286,-0.0273,-0.0287,-0.0287,-0.0287,0,-0.0129,-0.0138,-0.023,-0.0317,-0.0385,-0.0411,-0.0383,-0.0375,-0.0331,-0.03,-0.0354,-0.0312,-0.0311,-0.0308,-0.0308,-0.0295,0,0,0,-0.0163,-0.0175,-0.0242,-0.0318,-0.0399,-0.0381,-0.0369,-0.0346,-0.0328,-0.0335,-0.0284,-0.0285,-0.0362,-0.0299,-0.0293,-0.0293,-0.0274,0,0]}]]